TimeEDT,TemperatureF,Dew PointF,Humidity,Sea Level PressureIn,VisibilityMPH,Wind Direction,Wind SpeedMPH,Gust SpeedMPH,PrecipitationIn,Events,Conditions,WindDirDegrees,DateUTC
12:53 AM,72.0,66.0,81,30.10,10.0,Calm,Calm,-,N/A,,Mostly Cloudy,0,2013-06-25 04:53:00
1:53 AM,68.0,66.0,93,30.09,10.0,Calm,Calm,-,N/A,,Scattered Clouds,0,2013-06-25 05:53:00
2:53 AM,68.0,64.9,90,30.09,10.0,Calm,Calm,-,N/A,,Scattered Clouds,0,2013-06-25 06:53:00
3:53 AM,68.0,64.9,90,30.07,10.0,Calm,Calm,-,N/A,,Partly Cloudy,0,2013-06-25 07:53:00
4:53 AM,66.0,64.0,93,30.07,7.0,North,3.5,-,N/A,,Partly Cloudy,360,2013-06-25 08:53:00
5:53 AM,66.0,64.0,93,30.09,10.0,Calm,Calm,-,N/A,,Mostly Cloudy,0,2013-06-25 09:53:00
6:06 AM,66.9,64.0,90,30.16,10.0,Calm,Calm,-,N/A,,Overcast,0,2013-06-25 10:06:00
6:53 AM,68.0,64.0,87,30.10,10.0,SE,4.6,-,N/A,,Mostly Cloudy,140,2013-06-25 10:53:00
7:43 AM,69.1,66.0,90,30.19,10.0,Calm,Calm,-,N/A,,Mostly Cloudy,0,2013-06-25 11:43:00
7:53 AM,69.1,66.0,90,30.12,10.0,Calm,Calm,-,N/A,,Mostly Cloudy,0,2013-06-25 11:53:00
8:53 AM,73.0,64.9,76,30.12,10.0,Calm,Calm,-,N/A,,Scattered Clouds,0,2013-06-25 12:53:00
9:53 AM,75.0,66.9,76,30.13,10.0,Calm,Calm,-,N/A,,Mostly Cloudy,0,2013-06-25 13:53:00
10:53 AM,79.0,68.0,69,30.12,10.0,Calm,Calm,-,N/A,,Mostly Cloudy,0,2013-06-25 14:53:00
11:53 AM,79.0,66.9,66,30.11,10.0,SSW,5.8,-,N/A,,Mostly Cloudy,210,2013-06-25 15:53:00
12:53 PM,82.0,66.9,60,30.09,10.0,WSW,11.5,-,N/A,,Mostly Cloudy,240,2013-06-25 16:53:00
1:02 PM,81.0,66.9,62,30.17,10.0,West,10.4,-,N/A,Thunderstorm,Thunderstorm,280,2013-06-25 17:02:00
1:53 PM,73.0,69.1,87,30.09,7.0,West,5.8,-,N/A,Rain,Light Rain,270,2013-06-25 17:53:00
2:53 PM,79.0,69.1,72,30.07,10.0,West,8.1,-,0.00,,Mostly Cloudy,260,2013-06-25 18:53:00
3:53 PM,82.9,68.0,60,30.05,10.0,WNW,6.9,-,N/A,,Mostly Cloudy,290,2013-06-25 19:53:00
4:08 PM,82.9,69.1,63,30.13,10.0,West,11.5,-,N/A,Thunderstorm,Thunderstorm,280,2013-06-25 20:08:00
4:53 PM,80.1,68.0,67,30.03,10.0,NW,5.8,-,N/A,Thunderstorm,Thunderstorm,310,2013-06-25 20:53:00
5:02 PM,80.1,66.9,64,30.10,10.0,NW,5.8,-,N/A,,Mostly Cloudy,310,2013-06-25 21:02:00
5:53 PM,78.1,68.0,71,30.02,10.0,NNW,5.8,-,N/A,,Mostly Cloudy,340,2013-06-25 21:53:00
6:53 PM,78.1,68.0,71,30.01,10.0,West,6.9,-,N/A,,Mostly Cloudy,280,2013-06-25 22:53:00
7:53 PM,75.9,68.0,76,30.00,10.0,South,3.5,-,N/A,,Mostly Cloudy,190,2013-06-25 23:53:00
8:53 PM,75.0,66.9,76,30.01,10.0,NW,4.6,-,N/A,,Scattered Clouds,310,2013-06-26 00:53:00
9:53 PM,71.1,66.9,87,30.03,10.0,Calm,Calm,-,N/A,,Clear,0,2013-06-26 01:53:00
10:53 PM,69.1,66.0,90,30.03,10.0,NNW,3.5,-,N/A,,Clear,340,2013-06-26 02:53:00
11:53 PM,68.0,66.0,93,30.02,7.0,Calm,Calm,-,N/A,,Clear,0,2013-06-26 03:53:00